| time (UTC) | temp F | wind direction | speed MPH | gust MPH | rain 1hr in | rain 24hr in | rain mn in | humidity % | barometer mb |
| 20260508115347 | 46 | 269 | 1.0 | 2.0 | 0.00 | 0.08 | 0.08 | 95 | 1013.1 |
| 20260508114844 | 45 | 272 | 0.0 | 2.0 | 0.00 | 0.08 | 0.08 | 98 | 1013.2 |
| 20260508114341 | 45 | 271 | 0.0 | 1.0 | 0.00 | 0.08 | 0.08 | 99 | 1013.2 |
| 20260508113838 | 45 | 258 | 1.0 | 1.0 | 0.00 | 0.08 | 0.08 | 99 | 1013.0 |
| 20260508113336 | 45 | 236 | 1.0 | 2.0 | 0.00 | 0.08 | 0.08 | 99 | 1012.9 |
| 20260508112832 | 44 | 285 | 0.0 | 0.0 | 0.00 | 0.08 | 0.08 | 99 | 1013.0 |
| 20260508112329 | 44 | 280 | 0.0 | 0.0 | 0.00 | 0.08 | 0.08 | 99 | 1013.2 |
| 20260508111826 | 44 | 268 | 0.0 | 0.0 | 0.00 | 0.08 | 0.08 | 99 | 1013.0 |
| 20260508111323 | 44 | 265 | 0.0 | 1.0 | 0.00 | 0.08 | 0.08 | 99 | 1013.0 |
| 20260508110820 | 44 | 261 | 0.0 | 1.0 | 0.00 | 0.08 | 0.08 | 99 | 1013.0 |
| 20260508110318 | 44 | 278 | 0.0 | 1.0 | 0.00 | 0.08 | 0.08 | 99 | 1012.9 |
| 20260508105817 | 44 | 279 | 0.0 | 0.0 | 0.00 | 0.08 | 0.08 | 99 | 1012.8 |
| 20260508105314 | 44 | 279 | 0.0 | 0.0 | 0.00 | 0.08 | 0.08 | 99 | 1012.9 |
| 20260508104811 | 44 | 282 | 0.0 | 0.0 | 0.00 | 0.08 | 0.08 | 99 | 1012.8 |
| 20260508104308 | 45 | 283 | 0.0 | 0.0 | 0.00 | 0.08 | 0.08 | 99 | 1012.8 |
| 20260508103805 | 45 | 262 | 0.0 | 1.0 | 0.05 | 0.08 | 0.08 | 98 | 1012.6 |
| 20260508103302 | 45 | 258 | 0.0 | 1.0 | 0.05 | 0.08 | 0.08 | 98 | 1012.5 |
| 20260508102800 | 46 | 275 | 0.0 | 1.0 | 0.00 | 0.07 | 0.07 | 97 | 1012.8 |
| 20260508102257 | 46 | 238 | 1.0 | 2.0 | 0.00 | 0.07 | 0.07 | 96 | 1012.9 |
| 20260508101755 | 46 | 253 | 1.0 | 2.0 | 0.07 | 0.07 | 0.07 | 95 | 1012.9 |
| 20260508101252 | 46 | 206 | 2.0 | 2.0 | 0.12 | 0.07 | 0.07 | 93 | 1012.8 |
| 20260508100749 | 46 | 192 | 2.0 | 5.0 | 0.12 | 0.06 | 0.06 | 92 | 1013.7 |
| 20260508100248 | 46 | 308 | 4.0 | 5.0 | 0.14 | 0.05 | 0.05 | 93 | 1013.4 |
| 20260508095743 | 47 | 261 | 1.0 | 3.0 | 0.07 | 0.04 | 0.04 | 92 | 1013.5 |
| 20260508095241 | 47 | 246 | 1.0 | 3.0 | 0.00 | 0.03 | 0.03 | 89 | 1013.3 |
| 20260508094738 | 47 | 260 | 2.0 | 2.0 | 0.00 | 0.03 | 0.03 | 88 | 1012.8 |
| 20260508094235 | 47 | 260 | 1.0 | 2.0 | 0.05 | 0.03 | 0.03 | 86 | 1012.5 |
| 20260508093732 | 47 | 162 | 5.0 | 7.0 | 0.05 | 0.03 | 0.03 | 89 | 1012.7 |
| 20260508093229 | 47 | 270 | 2.0 | 2.0 | 0.00 | 0.02 | 0.02 | 89 | 1013.0 |
| 20260508092726 | 47 | 292 | 1.0 | 2.0 | 0.00 | 0.02 | 0.02 | 87 | 1013.1 |
| 20260508092224 | 47 | 285 | 0.0 | 2.0 | 0.00 | 0.02 | 0.02 | 88 | 1012.9 |
| 20260508091722 | 47 | 274 | 0.0 | 1.0 | 0.00 | 0.02 | 0.02 | 89 | 1012.8 |
| 20260508091219 | 47 | 284 | 0.0 | 1.0 | 0.00 | 0.02 | 0.02 | 89 | 1012.9 |
| 20260508090717 | 46 | 269 | 0.0 | 2.0 | 0.00 | 0.02 | 0.02 | 90 | 1012.9 |
| 20260508090214 | 47 | 260 | 1.0 | 1.0 | 0.00 | 0.02 | 0.02 | 90 | 1012.9 |
| 20260508085710 | 47 | 238 | 1.0 | 2.0 | 0.07 | 0.02 | 0.02 | 88 | 1013.0 |
| 20260508085207 | 47 | 294 | 0.0 | 1.0 | 0.07 | 0.02 | 0.02 | 87 | 1012.9 |
| 20260508084703 | 47 | 331 | 1.0 | 5.0 | 0.00 | 0.01 | 0.01 | 86 | 1013.0 |
| 20260508084201 | 47 | 266 | 1.0 | 5.0 | 0.00 | 0.01 | 0.01 | 87 | 1012.8 |
| 20260508083658 | 46 | 267 | 1.0 | 2.0 | 0.00 | 0.01 | 0.01 | 88 | 1013.0 |
| 20260508083155 | 46 | 296 | 1.0 | 8.0 | 0.00 | 0.01 | 0.01 | 88 | 1013.0 |
| 20260508082650 | 46 | 275 | 1.0 | 2.0 | 0.00 | 0.01 | 0.01 | 89 | 1013.1 |
| 20260508082148 | 45 | 261 | 1.0 | 5.0 | 0.00 | 0.01 | 0.01 | 90 | 1013.3 |
| 20260508081645 | 45 | 275 | 0.0 | 2.0 | 0.00 | 0.01 | 0.01 | 91 | 1013.3 |
| 20260508081142 | 45 | 241 | 1.0 | 2.0 | 0.00 | 0.01 | 0.01 | 91 | 1013.1 |
| 20260508080639 | 45 | 255 | 1.0 | 2.0 | 0.00 | 0.01 | 0.01 | 91 | 1013.2 |
| 20260508080137 | 45 | 271 | 0.0 | 2.0 | 0.00 | 0.01 | 0.01 | 92 | 1013.1 |
| 20260508075633 | 44 | 245 | 1.0 | 1.0 | 0.00 | 0.01 | 0.01 | 93 | 1013.0 |
| 20260508075130 | 44 | 275 | 0.0 | 1.0 | 0.00 | 0.01 | 0.01 | 92 | 1012.9 |
| 20260508074628 | 45 | 289 | 0.0 | 1.0 | 0.00 | 0.01 | 0.01 | 92 | 1013.3 |
| 20260508074125 | 45 | 277 | 1.0 | 1.0 | 0.00 | 0.01 | 0.01 | 91 | 1013.4 |
| 20260508073622 | 45 | 280 | 0.0 | 1.0 | 0.00 | 0.01 | 0.01 | 91 | 1013.2 |
| 20260508073120 | 45 | 269 | 1.0 | 1.0 | 0.00 | 0.01 | 0.01 | 91 | 1013.2 |
| 20260508072614 | 45 | 230 | 1.0 | 2.0 | 0.00 | 0.01 | 0.01 | 90 | 1013.3 |
| 20260508072112 | 46 | 338 | 0.0 | 1.0 | 0.00 | 0.01 | 0.01 | 90 | 1013.3 |
| 20260508071610 | 46 | 254 | 1.0 | 2.0 | 0.00 | 0.01 | 0.01 | 89 | 1013.2 |
| 20260508071108 | 46 | 246 | 3.0 | 5.0 | 0.00 | 0.01 | 0.01 | 89 | 1013.3 |
| 20260508070605 | 46 | 234 | 1.0 | 2.0 | 0.00 | 0.01 | 0.01 | 89 | 1013.5 |
| 20260508070104 | 46 | 249 | 1.0 | 1.0 | 0.00 | 0.01 | 0.01 | 89 | 1013.4 |
| 20260508065601 | 46 | 295 | 1.0 | 2.0 | 0.00 | 0.01 | 0.01 | 90 | 1013.5 |
| 20260508065058 | 46 | 321 | 1.0 | 1.0 | 0.00 | 0.01 | 0.01 | 90 | 1013.4 |
| 20260508064556 | 46 | 270 | 1.0 | 2.0 | 0.00 | 0.01 | 0.01 | 90 | 1013.5 |
| 20260508064054 | 47 | 266 | 1.0 | 3.0 | 0.00 | 0.01 | 0.01 | 90 | 1013.6 |
| 20260508063551 | 47 | 260 | 1.0 | 3.0 | 0.00 | 0.01 | 0.01 | 89 | 1013.6 |
| 20260508063049 | 47 | 237 | 1.0 | 6.0 | 0.05 | 0.01 | 0.01 | 89 | 1013.5 |
| 20260508062546 | 47 | 255 | 3.0 | 8.0 | 0.05 | 0.01 | 0.01 | 88 | 1013.5 |
| 20260508062043 | 48 | 194 | 3.0 | 5.0 | 0.00 | 0.00 | 0.00 | 85 | 1013.3 |
| 20260508061540 | 49 | 235 | 4.0 | 10.0 | 0.00 | 0.00 | 0.00 | 79 | 1013.6 |
| 20260508061037 | 50 | 187 | 5.0 | 7.0 | 0.00 | 0.00 | 0.00 | 74 | 1013.7 |
| 20260508060534 | 49 | 259 | 2.0 | 6.0 | 0.00 | 0.00 | 0.00 | 73 | 1013.6 |
| 20260508060031 | 49 | 218 | 3.0 | 5.0 | 0.00 | 0.00 | 0.00 | 72 | 1013.5 |
| 20260508055526 | 48 | 256 | 1.0 | 2.0 | 0.00 | 0.00 | 0.00 | 74 | 1013.6 |
| 20260508055024 | 48 | 272 | 1.0 | 1.0 | 0.00 | 0.00 | 0.00 | 75 | 1013.5 |
| 20260508054520 | 48 | 279 | 0.0 | 1.0 | 0.00 | 0.00 | 0.00 | 75 | 1013.6 |
| 20260508054017 | 47 | 261 | 1.0 | 1.0 | 0.00 | 0.00 | 0.00 | 76 | 1013.7 |
| 20260508053514 | 47 | 275 | 0.0 | 1.0 | 0.00 | 0.00 | 0.00 | 79 | 1013.9 |
| 20260508053012 | 46 | 263 | 0.0 | 1.0 | 0.00 | 0.00 | 0.00 | 81 | 1013.6 |
| 20260508052504 | 46 | 262 | 1.0 | 1.0 | 0.00 | 0.00 | 0.00 | 82 | 1013.9 |
| 20260508052000 | 46 | 273 | 0.0 | 1.0 | 0.00 | 0.00 | 0.00 | 83 | 1013.8 |
| 20260508051456 | 46 | 273 | 0.0 | 0.0 | 0.00 | 0.00 | 0.00 | 83 | 1013.9 |
| 20260508050952 | 46 | 273 | 0.0 | 1.0 | 0.00 | 0.00 | 0.00 | 82 | 1013.7 |
| 20260508050449 | 46 | 274 | 0.0 | 0.0 | 0.00 | 0.00 | 0.00 | 82 | 1013.7 |
| 20260508045945 | 46 | 275 | 0.0 | 1.0 | 0.00 | 0.00 | 0.00 | 81 | 1013.8 |
| 20260508045443 | 46 | 275 | 0.0 | 0.0 | 0.00 | 0.00 | 0.00 | 82 | 1014.1 |
| 20260508044940 | 46 | 277 | 0.0 | 0.0 | 0.00 | 0.00 | 0.00 | 82 | 1014.1 |
| 20260508044437 | 46 | 277 | 0.0 | 0.0 | 0.00 | 0.00 | 0.00 | 80 | 1014.0 |
| 20260508043932 | 46 | 277 | 0.0 | 0.0 | 0.00 | 0.00 | 0.00 | 81 | 1013.9 |
| 20260508043430 | 47 | 277 | 0.0 | 0.0 | 0.00 | 0.00 | 0.00 | 80 | 1013.9 |
| 20260508042926 | 47 | 277 | 0.0 | 0.0 | 0.00 | 0.00 | 0.00 | 79 | 1013.9 |
| 20260508042424 | 47 | 277 | 0.0 | 0.0 | 0.00 | 0.00 | 0.00 | 80 | 1013.8 |
| 20260508041921 | 47 | 258 | 1.0 | 1.0 | 0.00 | 0.00 | 0.00 | 78 | 1013.7 |
| 20260508041417 | 47 | 259 | 0.0 | 0.0 | 0.00 | 0.00 | 0.00 | 78 | 1013.9 |
| 20260508040914 | 48 | 258 | 0.0 | 1.0 | 0.00 | 0.00 | 0.00 | 78 | 1014.0 |
| 20260508040411 | 48 | 269 | 0.0 | 0.0 | 0.00 | 0.00 | 0.00 | 76 | 1014.0 |
| 20260508035909 | 48 | 265 | 1.0 | 1.0 | 0.00 | 0.00 | 0.00 | 76 | 1014.1 |
| 20260508035406 | 48 | 267 | 0.0 | 1.0 | 0.00 | 0.00 | 0.00 | 74 | 1014.1 |
| 20260508034902 | 48 | 263 | 0.0 | 1.0 | 0.00 | 0.00 | 0.00 | 74 | 1013.9 |
| 20260508034359 | 49 | 319 | 1.0 | 2.0 | 0.00 | 0.00 | 0.00 | 74 | 1014.1 |
| 20260508033850 | 49 | 268 | 0.0 | 1.0 | 0.00 | 0.00 | 0.00 | 72 | 1014.2 |
| 20260508033349 | 49 | 263 | 0.0 | 1.0 | 0.00 | 0.00 | 0.00 | 72 | 1014.3 |
| 20260508032846 | 49 | 267 | 0.0 | 1.0 | 0.00 | 0.00 | 0.00 | 71 | 1014.1 |
| 20260508032343 | 49 | 285 | 1.0 | 1.0 | 0.00 | 0.00 | 0.00 | 70 | 1014.4 |
| 20260508031840 | 50 | 272 | 0.0 | 3.0 | 0.00 | 0.00 | 0.00 | 70 | 1014.2 |
| 20260508031337 | 50 | 234 | 1.0 | 3.0 | 0.00 | 0.00 | 0.00 | 69 | 1014.2 |
| 20260508030833 | 50 | 285 | 1.0 | 3.0 | 0.00 | 0.00 | 0.00 | 67 | 1014.3 |
| 20260508030330 | 50 | 287 | 1.0 | 3.0 | 0.00 | 0.00 | 0.00 | 68 | 1014.1 |
| 20260508025826 | 50 | 242 | 1.0 | 2.0 | 0.00 | 0.00 | 0.00 | 68 | 1014.3 |
| 20260508025318 | 50 | 261 | 1.0 | 3.0 | 0.00 | 0.00 | 0.00 | 67 | 1014.6 |
| 20260508024815 | 50 | 217 | 3.0 | 5.0 | 0.00 | 0.00 | 0.00 | 66 | 1014.2 |
| 20260508024311 | 51 | 192 | 3.0 | 7.0 | 0.00 | 0.00 | 0.00 | 66 | 1014.5 |
| 20260508023808 | 51 | 320 | 3.0 | 6.0 | 0.00 | 0.00 | 0.00 | 62 | 1014.5 |
| 20260508023305 | 51 | 277 | 3.0 | 5.0 | 0.00 | 0.00 | 0.00 | 62 | 1014.4 |
| 20260508022801 | 51 | 320 | 1.0 | 5.0 | 0.00 | 0.00 | 0.00 | 62 | 1014.3 |
| 20260508022257 | 51 | 215 | 1.0 | 2.0 | 0.00 | 0.00 | 0.00 | 61 | 1014.2 |
| 20260508021755 | 51 | 155 | 2.0 | 2.0 | 0.00 | 0.00 | 0.00 | 61 | 1014.2 |
| 20260508021250 | 51 | 262 | 0.0 | 0.0 | 0.00 | 0.00 | 0.00 | 61 | 1014.2 |
| 20260508020747 | 51 | 272 | 0.0 | 1.0 | 0.00 | 0.00 | 0.00 | 60 | 1014.1 |
| 20260508020245 | 51 | 241 | 4.0 | 6.0 | 0.00 | 0.00 | 0.00 | 59 | 1014.1 |
| 20260508015741 | 51 | 277 | 1.0 | 5.0 | 0.00 | 0.00 | 0.00 | 60 | 1014.1 |
| 20260508015239 | 51 | 260 | 1.0 | 1.0 | 0.00 | 0.00 | 0.00 | 62 | 1014.1 |
| 20260508014735 | 49 | 223 | 2.0 | 3.0 | 0.00 | 0.00 | 0.00 | 63 | 1013.9 |
| 20260508014232 | 49 | 203 | 2.0 | 3.0 | 0.00 | 0.00 | 0.00 | 73 | 1013.9 |
| 20260508013728 | 48 | 266 | 0.0 | 1.0 | 0.00 | 0.00 | 0.00 | 72 | 1013.8 |
| 20260508013225 | 48 | 290 | 0.0 | 0.0 | 0.00 | 0.00 | 0.00 | 75 | 1013.9 |
| 20260508012722 | 48 | 290 | 0.0 | 0.0 | 0.00 | 0.00 | 0.00 | 76 | 1013.6 |
| 20260508012219 | 48 | 291 | 0.0 | 0.0 | 0.00 | 0.00 | 0.00 | 75 | 1013.6 |
| 20260508011717 | 48 | 290 | 0.0 | 0.0 | 0.00 | 0.00 | 0.00 | 74 | 1013.6 |
| 20260508011214 | 48 | 290 | 0.0 | 1.0 | 0.00 | 0.00 | 0.00 | 73 | 1013.5 |
| 20260508010711 | 48 | 291 | 0.0 | 1.0 | 0.00 | 0.00 | 0.00 | 73 | 1013.5 |
| 20260508010209 | 48 | 291 | 1.0 | 1.0 | 0.00 | 0.00 | 0.00 | 73 | 1013.4 |
| 20260508005706 | 49 | 291 | 0.0 | 0.0 | 0.00 | 0.00 | 0.00 | 70 | 1013.6 |
| 20260508005203 | 49 | 291 | 0.0 | 0.0 | 0.00 | 0.00 | 0.00 | 68 | 1013.4 |
| 20260508004658 | 49 | 292 | 0.0 | 0.0 | 0.00 | 0.00 | 0.00 | 66 | 1013.3 |
| 20260508004154 | 49 | 292 | 0.0 | 0.0 | 0.00 | 0.00 | 0.00 | 65 | 1013.4 |
| 20260508003651 | 49 | 292 | 0.0 | 0.0 | 0.00 | 0.00 | 0.00 | 64 | 1013.3 |
| 20260508003149 | 50 | 292 | 0.0 | 0.0 | 0.00 | 0.00 | 0.00 | 62 | 1013.2 |
| 20260508002645 | 51 | 292 | 0.0 | 0.0 | 0.00 | 0.00 | 0.00 | 61 | 1013.3 |
| 20260508002143 | 51 | 292 | 0.0 | 0.0 | 0.00 | 0.00 | 0.00 | 60 | 1013.4 |
| 20260508001638 | 52 | 292 | 0.0 | 0.0 | 0.00 | 0.00 | 0.00 | 59 | 1013.1 |
| 20260508001134 | 52 | 292 | 0.0 | 0.0 | 0.00 | 0.00 | 0.00 | 58 | 1013.1 |
| 20260508000630 | 52 | 285 | 0.0 | 1.0 | 0.00 | 0.00 | 0.00 | 53 | 1013.2 |
| 20260508000128 | 53 | 266 | 0.0 | 0.0 | 0.00 | 0.00 | 0.00 | 56 | 1012.9 |
| 20260507235624 | 53 | 300 | 0.0 | 1.0 | 0.00 | 0.00 | 0.00 | 53 | 1013.0 |
| 20260507235122 | 53 | 288 | 1.0 | 2.0 | 0.00 | 0.00 | 0.00 | 53 | 1012.9 |
| 20260507234618 | 53 | 315 | 1.0 | 1.0 | 0.00 | 0.00 | 0.00 | 54 | 1013.2 |
| 20260507234115 | 53 | 305 | 1.0 | 2.0 | 0.00 | 0.00 | 0.00 | 52 | 1013.1 |
| 20260507233612 | 54 | 322 | 2.0 | 6.0 | 0.00 | 0.00 | 0.00 | 52 | 1013.1 |
| 20260507233110 | 54 | 358 | 4.0 | 5.0 | 0.00 | 0.00 | 0.00 | 51 | 1013.1 |
| 20260507232606 | 55 | 359 | 1.0 | 5.0 | 0.00 | 0.00 | 0.00 | 49 | 1013.0 |
| 20260507232104 | 55 | 313 | 1.0 | 2.0 | 0.00 | 0.00 | 0.00 | 49 | 1013.1 |
| 20260507231559 | 54 | 314 | 4.0 | 5.0 | 0.00 | 0.00 | 0.00 | 47 | 1013.0 |
| 20260507231057 | 55 | 336 | 3.0 | 3.0 | 0.00 | 0.00 | 0.00 | 47 | 1013.2 |
| 20260507230548 | 56 | 224 | 1.0 | 3.0 | 0.00 | 0.00 | 0.00 | 45 | 1013.2 |
| 20260507230044 | 56 | 346 | 3.0 | 7.0 | 0.00 | 0.00 | 0.00 | 46 | 1013.2 |
| 20260507225539 | 56 | 320 | 3.0 | 8.0 | 0.00 | 0.00 | 0.00 | 45 | 1013.1 |
| 20260507225036 | 56 | 322 | 0.0 | 7.0 | 0.00 | 0.00 | 0.00 | 45 | 1013.2 |
| 20260507224532 | 57 | 282 | 2.0 | 7.0 | 0.00 | 0.00 | 0.00 | 45 | 1013.2 |
| 20260507224028 | 58 | 272 | 1.0 | 5.0 | 0.00 | 0.00 | 0.00 | 44 | 1013.3 |
| 20260507223525 | 57 | 255 | 4.0 | 7.0 | 0.00 | 0.00 | 0.00 | 43 | 1013.4 |
| 20260507223022 | 57 | 278 | 2.0 | 2.0 | 0.00 | 0.00 | 0.00 | 44 | 1013.3 |
| 20260507222519 | 56 | 280 | 2.0 | 6.0 | 0.00 | 0.00 | 0.00 | 45 | 1013.3 |
| 20260507222015 | 57 | 346 | 4.0 | 9.0 | 0.00 | 0.00 | 0.00 | 44 | 1013.2 |
| 20260507221512 | 57 | 275 | 3.0 | 8.0 | 0.00 | 0.00 | 0.00 | 46 | 1013.2 |
| 20260507221009 | 57 | 5 | 4.0 | 6.0 | 0.00 | 0.00 | 0.00 | 42 | 1013.2 |
| 20260507220506 | 57 | 25 | 3.0 | 7.0 | 0.00 | 0.00 | 0.00 | 44 | 1013.3 |
| 20260507220003 | 58 | 324 | 1.0 | 3.0 | 0.00 | 0.00 | 0.00 | 46 | 1013.2 |
| 20260507215458 | 58 | 314 | 1.0 | 6.0 | 0.00 | 0.00 | 0.00 | 47 | 1013.5 |
| 20260507214956 | 58 | 17 | 2.0 | 5.0 | 0.00 | 0.00 | 0.00 | 46 | 1013.2 |
| 20260507214448 | 57 | 275 | 1.0 | 5.0 | 0.00 | 0.00 | 0.00 | 48 | 1013.1 |
| 20260507213944 | 56 | 311 | 3.0 | 8.0 | 0.00 | 0.00 | 0.00 | 46 | 1013.1 |
| 20260507213440 | 56 | 323 | 3.0 | 6.0 | 0.00 | 0.00 | 0.00 | 45 | 1013.3 |
| 20260507212938 | 56 | 12 | 4.0 | 10.0 | 0.00 | 0.00 | 0.00 | 44 | 1013.0 |
| 20260507212433 | 56 | 298 | 2.0 | 9.0 | 0.00 | 0.00 | 0.00 | 45 | 1012.9 |
| 20260507211931 | 56 | 9 | 3.0 | 13.0 | 0.00 | 0.00 | 0.00 | 44 | 1013.1 |
| 20260507211427 | 57 | 271 | 6.0 | 10.0 | 0.00 | 0.00 | 0.00 | 43 | 1012.9 |
| 20260507210923 | 58 | 225 | 2.0 | 7.0 | 0.00 | 0.00 | 0.00 | 45 | 1012.9 |
| 20260507210421 | 58 | 42 | 4.0 | 11.0 | 0.00 | 0.00 | 0.00 | 42 | 1012.8 |
| 20260507205917 | 57 | 120 | 3.0 | 6.0 | 0.00 | 0.00 | 0.00 | 44 | 1012.9 |
| 20260507205415 | 57 | 27 | 3.0 | 5.0 | 0.00 | 0.00 | 0.00 | 44 | 1012.9 |
| 20260507204910 | 57 | 343 | 3.0 | 5.0 | 0.00 | 0.00 | 0.00 | 45 | 1012.7 |
| 20260507204407 | 58 | 149 | 3.0 | 8.0 | 0.00 | 0.00 | 0.00 | 46 | 1012.8 |
| 20260507203905 | 58 | 242 | 3.0 | 7.0 | 0.00 | 0.00 | 0.00 | 43 | 1012.9 |
| 20260507203403 | 58 | 215 | 4.0 | 7.0 | 0.00 | 0.00 | 0.00 | 47 | 1012.7 |
| 20260507202858 | 57 | 220 | 3.0 | 5.0 | 0.00 | 0.00 | 0.00 | 50 | 1012.6 |
| 20260507202355 | 58 | 199 | 6.0 | 8.0 | 0.00 | 0.00 | 0.00 | 47 | 1012.7 |
| 20260507201850 | 59 | 289 | 1.0 | 5.0 | 0.00 | 0.00 | 0.00 | 47 | 1012.8 |
| 20260507201346 | 58 | 275 | 1.0 | 13.0 | 0.00 | 0.00 | 0.00 | 49 | 1012.7 |
| 20260507200842 | 57 | 280 | 9.0 | 10.0 | 0.00 | 0.00 | 0.00 | 46 | 1012.8 |
| 20260507200333 | 57 | 266 | 1.0 | 3.0 | 0.00 | 0.00 | 0.00 | 51 | 1012.9 |
| 20260507195829 | 55 | 259 | 2.0 | 6.0 | 0.00 | 0.00 | 0.00 | 49 | 1013.0 |
| 20260507195327 | 56 | 234 | 3.0 | 6.0 | 0.00 | 0.00 | 0.00 | 50 | 1012.9 |
| 20260507194824 | 56 | 289 | 3.0 | 9.0 | 0.00 | 0.00 | 0.00 | 49 | 1013.0 |
| 20260507194320 | 56 | 318 | 5.0 | 10.0 | 0.00 | 0.00 | 0.00 | 49 | 1012.8 |
| 20260507193817 | 57 | 316 | 3.0 | 5.0 | 0.00 | 0.00 | 0.00 | 50 | 1013.0 |
| 20260507193314 | 58 | 261 | 3.0 | 9.0 | 0.00 | 0.00 | 0.00 | 49 | 1013.1 |
| 20260507192809 | 57 | 20 | 2.0 | 9.0 | 0.00 | 0.00 | 0.00 | 51 | 1012.9 |
| 20260507192307 | 58 | 354 | 2.0 | 6.0 | 0.00 | 0.00 | 0.00 | 50 | 1013.0 |
| 20260507191803 | 57 | 269 | 1.0 | 5.0 | 0.00 | 0.00 | 0.00 | 53 | 1013.2 |
| 20260507191259 | 57 | 248 | 2.0 | 9.0 | 0.00 | 0.00 | 0.00 | 54 | 1013.0 |
| 20260507190756 | 57 | 221 | 6.0 | 10.0 | 0.00 | 0.00 | 0.00 | 51 | 1013.1 |
| 20260507190255 | 57 | 62 | 3.0 | 8.0 | 0.00 | 0.00 | 0.00 | 53 | 1013.1 |
| 20260507185753 | 56 | 36 | 3.0 | 6.0 | 0.00 | 0.00 | 0.00 | 53 | 1013.1 |
| 20260507185249 | 56 | 34 | 5.0 | 7.0 | 0.00 | 0.00 | 0.00 | 54 | 1013.3 |
| 20260507184747 | 56 | 209 | 1.0 | 3.0 | 0.00 | 0.00 | 0.00 | 54 | 1012.9 |
| 20260507184245 | 56 | 221 | 4.0 | 9.0 | 0.00 | 0.00 | 0.00 | 52 | 1013.1 |
| 20260507183741 | 58 | 191 | 3.0 | 6.0 | 0.00 | 0.00 | 0.00 | 48 | 1013.3 |
| 20260507183238 | 57 | 160 | 3.0 | 7.0 | 0.00 | 0.00 | 0.00 | 50 | 1013.1 |
| 20260507182736 | 57 | 236 | 6.0 | 15.0 | 0.00 | 0.00 | 0.00 | 50 | 1013.1 |
| 20260507182230 | 57 | 252 | 3.0 | 6.0 | 0.00 | 0.00 | 0.00 | 56 | 1013.1 |
| 20260507181728 | 56 | 89 | 2.0 | 6.0 | 0.00 | 0.00 | 0.00 | 49 | 1013.3 |
| 20260507181224 | 56 | 280 | 2.0 | 5.0 | 0.00 | 0.00 | 0.00 | 52 | 1013.4 |
| 20260507180720 | 55 | 191 | 5.0 | 8.0 | 0.00 | 0.00 | 0.00 | 50 | 1013.4 |
| 20260507180217 | 55 | 175 | 3.0 | 6.0 | 0.00 | 0.00 | 0.00 | 52 | 1013.5 |
| 20260507175713 | 56 | 262 | 3.0 | 11.0 | 0.00 | 0.00 | 0.00 | 51 | 1013.5 |
| 20260507175210 | 55 | 300 | 1.0 | 3.0 | 0.00 | 0.00 | 0.00 | 54 | 1013.5 |
| 20260507174708 | 55 | 267 | 1.0 | 2.0 | 0.00 | 0.00 | 0.00 | 55 | 1013.5 |
| 20260507174205 | 55 | 305 | 3.0 | 7.0 | 0.00 | 0.00 | 0.00 | 57 | 1013.5 |
| 20260507173702 | 55 | 316 | 4.0 | 6.0 | 0.00 | 0.00 | 0.00 | 52 | 1013.4 |
| 20260507173159 | 55 | 296 | 3.0 | 5.0 | 0.00 | 0.00 | 0.00 | 53 | 1013.5 |
| 20260507172656 | 56 | 289 | 3.0 | 6.0 | 0.00 | 0.00 | 0.00 | 53 | 1013.6 |
| 20260507172153 | 55 | 326 | 1.0 | 5.0 | 0.00 | 0.00 | 0.00 | 53 | 1013.5 |
| 20260507171652 | 56 | 206 | 3.0 | 3.0 | 0.00 | 0.00 | 0.00 | 55 | 1013.6 |
| 20260507171150 | 54 | 316 | 5.0 | 7.0 | 0.00 | 0.00 | 0.00 | 52 | 1013.5 |
| 20260507170647 | 55 | 297 | 2.0 | 8.0 | 0.00 | 0.00 | 0.00 | 53 | 1013.7 |
| 20260507170144 | 56 | 90 | 2.0 | 5.0 | 0.00 | 0.00 | 0.00 | 51 | 1013.7 |
| 20260507165640 | 56 | 217 | 3.0 | 6.0 | 0.00 | 0.00 | 0.00 | 53 | 1013.8 |
| 20260507165136 | 56 | 275 | 4.0 | 8.0 | 0.00 | 0.00 | 0.00 | 51 | 1013.7 |
| 20260507164632 | 55 | 268 | 1.0 | 3.0 | 0.00 | 0.00 | 0.00 | 54 | 1013.7 |
| 20260507164130 | 55 | 330 | 3.0 | 3.0 | 0.00 | 0.00 | 0.00 | 54 | 1013.6 |
| 20260507163627 | 55 | 337 | 2.0 | 5.0 | 0.00 | 0.00 | 0.00 | 52 | 1013.6 |
| 20260507163125 | 56 | 166 | 2.0 | 3.0 | 0.00 | 0.00 | 0.00 | 50 | 1013.8 |
| 20260507162620 | 56 | 286 | 4.0 | 5.0 | 0.00 | 0.00 | 0.00 | 49 | 1013.7 |
| 20260507162117 | 56 | 252 | 3.0 | 3.0 | 0.00 | 0.00 | 0.00 | 53 | 1013.4 |
| 20260507161613 | 55 | 246 | 2.0 | 2.0 | 0.00 | 0.00 | 0.00 | 53 | 1013.7 |
| 20260507161110 | 55 | 53 | 3.0 | 6.0 | 0.00 | 0.00 | 0.00 | 52 | 1013.8 |
| 20260507160606 | 56 | 264 | 1.0 | 5.0 | 0.00 | 0.00 | 0.00 | 57 | 1013.6 |
| 20260507155558 | 56 | 201 | 2.0 | 14.0 | 0.00 | 0.00 | 0.00 | 58 | 1013.9 |
| 20260507155055 | 54 | 308 | 3.0 | 6.0 | 0.00 | 0.00 | 0.00 | 56 | 1013.8 |
| 20260507154552 | 55 | 325 | 3.0 | 6.0 | 0.00 | 0.00 | 0.00 | 54 | 1013.7 |
| 20260507154049 | 53 | 9 | 2.0 | 6.0 | 0.00 | 0.00 | 0.00 | 58 | 1014.0 |
| 20260507153546 | 53 | 327 | 1.0 | 6.0 | 0.00 | 0.00 | 0.00 | 57 | 1013.7 |
| 20260507153042 | 53 | 114 | 3.0 | 5.0 | 0.00 | 0.00 | 0.00 | 61 | 1013.8 |
| 20260507152538 | 53 | 358 | 2.0 | 3.0 | 0.00 | 0.00 | 0.00 | 62 | 1013.7 |
| 20260507152034 | 53 | 318 | 3.0 | 3.0 | 0.00 | 0.00 | 0.00 | 62 | 1013.7 |
| 20260507151530 | 54 | 203 | 2.0 | 7.0 | 0.00 | 0.00 | 0.00 | 62 | 1013.7 |
| 20260507151028 | 53 | 298 | 1.0 | 5.0 | 0.00 | 0.00 | 0.00 | 66 | 1013.7 |
| 20260507150525 | 53 | 315 | 1.0 | 3.0 | 0.00 | 0.00 | 0.00 | 66 | 1013.7 |
| 20260507150021 | 54 | 204 | 3.0 | 6.0 | 0.00 | 0.00 | 0.00 | 68 | 1013.7 |
| 20260507145516 | 52 | 141 | 2.0 | 3.0 | 0.00 | 0.00 | 0.00 | 67 | 1013.9 |
| 20260507145015 | 52 | 282 | 2.0 | 6.0 | 0.00 | 0.00 | 0.00 | 68 | 1013.9 |
| 20260507144511 | 52 | 315 | 0.0 | 3.0 | 0.00 | 0.00 | 0.00 | 68 | 1014.0 |
| 20260507144008 | 52 | 239 | 2.0 | 5.0 | 0.00 | 0.00 | 0.00 | 68 | 1014.0 |
| 20260507143505 | 51 | 260 | 2.0 | 3.0 | 0.00 | 0.00 | 0.00 | 68 | 1013.8 |
| 20260507143001 | 51 | 309 | 2.0 | 3.0 | 0.00 | 0.00 | 0.00 | 71 | 1013.7 |
| 20260507142452 | 51 | 320 | 1.0 | 3.0 | 0.00 | 0.00 | 0.00 | 70 | 1013.6 |
| 20260507141949 | 50 | 225 | 2.0 | 6.0 | 0.00 | 0.00 | 0.00 | 73 | 1013.8 |
| 20260507141444 | 50 | 255 | 1.0 | 1.0 | 0.00 | 0.00 | 0.00 | 74 | 1013.9 |
| 20260507140936 | 50 | 253 | 1.0 | 5.0 | 0.00 | 0.00 | 0.00 | 73 | 1013.8 |
| 20260507140433 | 50 | 195 | 2.0 | 3.0 | 0.00 | 0.00 | 0.00 | 72 | 1014.1 |
| 20260507135930 | 50 | 259 | 1.0 | 5.0 | 0.00 | 0.00 | 0.00 | 73 | 1013.9 |
| 20260507135427 | 49 | 234 | 2.0 | 2.0 | 0.00 | 0.00 | 0.00 | 75 | 1013.9 |
| 20260507134924 | 49 | 308 | 1.0 | 5.0 | 0.00 | 0.00 | 0.00 | 77 | 1014.0 |
| 20260507134421 | 48 | 324 | 3.0 | 6.0 | 0.00 | 0.00 | 0.00 | 76 | 1014.1 |
| 20260507133917 | 48 | 216 | 1.0 | 3.0 | 0.00 | 0.00 | 0.00 | 75 | 1014.0 |
| 20260507133412 | 48 | 338 | 3.0 | 5.0 | 0.00 | 0.00 | 0.00 | 76 | 1014.0 |
| 20260507132911 | 48 | 230 | 1.0 | 3.0 | 0.00 | 0.00 | 0.00 | 79 | 1014.1 |
| 20260507132407 | 47 | 318 | 2.0 | 7.0 | 0.00 | 0.00 | 0.00 | 78 | 1014.1 |
| 20260507131905 | 47 | 231 | 2.0 | 3.0 | 0.00 | 0.00 | 0.00 | 80 | 1014.3 |
| 20260507131401 | 47 | 302 | 1.0 | 2.0 | 0.00 | 0.00 | 0.00 | 80 | 1014.2 |
| 20260507130858 | 46 | 282 | 1.0 | 2.0 | 0.00 | 0.00 | 0.00 | 82 | 1014.2 |
| 20260507130354 | 46 | 258 | 2.0 | 5.0 | 0.00 | 0.00 | 0.00 | 81 | 1014.3 |
| 20260507125854 | 46 | 260 | 2.0 | 3.0 | 0.00 | 0.00 | 0.00 | 83 | 1014.1 |
| 20260507125350 | 46 | 293 | 1.0 | 3.0 | 0.00 | 0.00 | 0.00 | 83 | 1014.2 |
| 20260507124848 | 46 | 258 | 1.0 | 2.0 | 0.00 | 0.00 | 0.00 | 84 | 1014.1 |
| 20260507124344 | 46 | 246 | 1.0 | 1.0 | 0.00 | 0.00 | 0.00 | 83 | 1014.1 |
| 20260507123843 | 46 | 271 | 0.0 | 1.0 | 0.00 | 0.00 | 0.00 | 84 | 1014.1 |
| 20260507123339 | 45 | 283 | 0.0 | 2.0 | 0.00 | 0.00 | 0.00 | 84 | 1014.1 |
| 20260507122836 | 45 | 270 | 2.0 | 2.0 | 0.00 | 0.00 | 0.00 | 85 | 1014.1 |
| 20260507122331 | 45 | 263 | 3.0 | 5.0 | 0.00 | 0.00 | 0.00 | 84 | 1014.2 |
| 20260507121828 | 45 | 221 | 2.0 | 2.0 | 0.00 | 0.00 | 0.00 | 85 | 1014.1 |
| 20260507121323 | 45 | 295 | 1.0 | 5.0 | 0.00 | 0.00 | 0.00 | 85 | 1014.1 |
| 20260507120820 | 44 | 290 | 0.0 | 2.0 | 0.00 | 0.00 | 0.00 | 86 | 1014.0 |
| 20260507120317 | 44 | 265 | 1.0 | 2.0 | 0.00 | 0.00 | 0.00 | 87 | 1014.3 |
| 20260507115813 | 44 | 10 | 2.0 | 6.0 | 0.00 | 0.00 | 0.00 | 87 | 1013.9 |